Location: Ailingen
(47.6833°N, 9.5000°E)
Time: 08:03:23
(UTC+00:00)

COSMOS 2406 - Pass Details

Date: 18 November 2025
Orbit: 845 x 859 km, 71.0° (Epoch: 13 December)

Event Time Altitude Azimuth Distance (km) Brightness Sun altitude
Rises 16:22:54 0° 337° (NNW) 3,417 6.4 -7.1°
Reaches altitude 10° 16:25:48 10° 351° (N) 2,479 5.5 -7.5°
Maximum altitude 16:30:27 25° 46° (NE) 1,645 4.2 -8.3°
Drops below altitude 10° 16:35:05 10° 101° (E) 2,474 5.1 -9.0°
Enters shadow 16:36:53 - 110° (ESE) 3,041 5.6 -9.3°
